SCP
0 0 0 0 0 0 0 0 1 1 0 0 1 1 0 0 0 0 0 1 0 0 0 0 0 0 0 0 0 0 0 0 0 0 0 0 0 0 0 0 0 0 0
0 0 0 0 0 0 0 0 0 0 0 0 1 1 1 1 0 0 0 0 0 0 0 0 0 0 1 1 0 0 0 0 0 0 0 0 0 0 0 0 0 0 0
0 0 0 0 0 0 0 0 0 0 0 0 0 1 1 0 0 0 0 0 0 0 0 0 0 0 0 0 1 1 0 1 0 0 0 0 0 0 0 0 0 0 0
0 0 0 0 0 0 0 0 0 0 0 0 0 0 0 0 0 0 0 0 0 0 0 0 0 0 -0 0 0 1 1 0 0 0 0 0 0 0 0 0 0 0 0
0 0 0 0 0 0 0 0 0 0 0 0 0 0 0 0 0 0 0 0 0 0 0 0 0 0 0 0 -0 0 0 0 0 0 0 0 0 0 0 0 0 0 0
0 0 0 0 0 0 0 0 0 0 0 0 0 0 0 0 0 0 0 0 0 0 0 0 0 0 0 0 0 0 0 0 0 0 0 0 0 0 0 0 0 0 0
0 0 0 0 0 0 0 0 0 0 0 0 0 0 0 0 0 0 0 0 0 0 0 0 0 0 0 0 0 0 0 -0 0 0 0 0 0 0 0 0 0 0 0
0 0 0 0 0 0 0 0 0 0 0 0 0 0 0 0 0 0 0 0 0 0 0 0 0 0 0 0 0 0 0 0 0 0 0 0 0 0 0 0 0 0 0
0 0 0 0 0 0 0 0 0 0 0 0 0 0 0 0 0 0 0 0 0 0 0 0 0 0 0 0 0 0 0 0 0 0 -0 0 0 0 0 0 0 0 0
0 0 0 0 0 0 0 0 0 0 0 0 0 0 0 0 0 0 0 0 0 0 0 0 0 0 0 0 0 0 0 0 0 0 0 0 0 0 0 0 0 0 0
0 0 0 0 0 0 0 0 0 0 0 0 0 0 0 0 0 0 0 0 0 0 0 0 0 0 0 0 0 0 0 0 0 0 0 0 0 0 0 0 0 0 0
0 0 0 0 0 0 0 0 0 0 0 0 0 0 0 0 0 0 0 0 0 0 0 0 0 0 0 0 0 0 0 0 0 0 0 0 0 0 0 0 0 0 0
0 0 0 0 0 0 0 0 0 0 0 0 0 0 0 0 0 0 0 0 0 0 0 0 0 0 0 0 0 0 0 0 0 0 0 0 0 0 0 0 0 0 0
0 0 0 0 0 0 0 0 0 0 0 0 0 0 0 0 0 0 0 0 0 0 0 0 0 0 0 0 0 0 0 0 0 0 0 0 0 0 0 0 0 0 0
0 0 0 0 0 0 0 0 0 0 0 0 0 0 0 0 0 0 0 0 0 0 0 0 0 0 0 0 0 0 0 0 0 0 0 0 0 0 0 0 0 0 0
0 0 0 0 0 0 0 0 0 0 0 0 0 0 0 0 0 0 0 0 0 0 0 0 0 0 0 0 0 0 0 0 0 0 0 0 0 0 0 0 0 0 0
0 0 0 0 0 0 0 0 0 0 0 0 0 0 0 0 0 0 0 0 0 0 0 0 0 0 0 0 0 0 0 0 0 0 0 0 0 0 0 0 0 0 0
0 0 0 0 0 0 0 0 0 0 0 0 0 0 0 0 0 0 0 0 0 0 0 0 0 0 0 0 -0 -0 0 0 0 0 0 0 0 0 0 0 0 0 0
0 0 0 0 0 0 0 0 0 0 0 0 0 0 0 0 0 0 0 0 0 0 0 0 0 0 0 0 0 -0 0 0 0 0 0 0 0 0 0 0 0 0 0
0 0 0 0 0 0 0 0 0 0 0 0 0 0 0 0 0 0 0 0 0 0 0 0 0 0 0 0 0 0 0 0 0 0 0 0 0 0 0 0 0 0 0
0 0 0 0 0 0 0 0 0 0 0 0 0 0 0 0 0 0 0 0 0 0 0 0 0 0 0 0 0 0 0 0 -0 0 0 0 -0 0 0 0 0 0 0
0 0 0 0 0 0 0 0 0 0 0 0 0 0 0 0 0 0 0 0 -0 0 0 0 0 0 0 0 0 0 0 0 0 0 0 0 0 0 0 0 -0 -0 -0
0 0 0 0 0 0 0 0 0 0 0 0 0 0 0 0 0 0 0 0 0 0 0 0 0 0 -0 0 0 0 0 -0 0 0 -0 -0 -0 0 0 0 -0 -0 0
0 0 0 0 0 0 0 0 0 0 0 0 0 0 0 0 0 0 0 0 0 0 0 0 0 -0 -0 0 -0 -0 0 -0 0 -0 -0 0 0 0 0 0 0 0 0
0 0 0 0 0 0 0 0 0 0 0 0 0 0 0 0 0 0 0 0 0 0 0 0 0 0 0 0 0 0 0 0 -0 -0 0 0 0 0 0 0 0 0 0
0 0 0 0 0 0 0 0 0 0 0 0 0 0 0 0 0 0 0 0 0 0 0 0 0 0 0 0 -0 -0 -0 -0 0 0 0 0 0 0 0 0 0 0 -0
Wind_Speed_500mb
19 18 22 22 20 33 38 41 49 57 50 50 40 43 51 47 47 44 39 47 58 70 63 68 65 57 49 62 53 45 57 52 55 52 42 40 45 46 44 46 45 46 43
20 14 17 18 20 25 32 40 34 35 43 54 57 48 48 52 57 61 57 51 47 48 60 76 83 74 59 54 65 54 53 55 65 61 57 46 46 53 50 54 53 50 43
15 9 11 19 24 23 23 24 40 43 46 43 45 52 52 57 57 61 60 65 64 55 56 70 71 44 53 62 72 66 61 69 65 68 56 32 31 58 61 59 57 52 51
16 9 6 10 11 17 15 18 21 36 40 47 50 44 46 52 59 67 70 71 73 72 61 62 59 22 66 39 56 82 69 69 70 73 70 63 51 37 35 58 60 58 56
17 14 14 18 15 9 14 23 25 29 28 32 40 46 47 45 52 56 58 59 60 61 67 78 60 53 81 78 95 50 73 69 64 64 72 80 77 72 48 47 62 63 63
24 20 17 14 13 10 8 8 12 18 17 14 16 19 24 26 29 40 47 50 50 52 64 63 61 86 92 85 64 41 66 80 67 70 71 80 79 76 69 63 57 68 74
33 28 21 11 6 3 3 5 5 6 5 4 3 4 9 13 18 21 28 34 34 39 54 58 55 52 61 68 67 74 65 72 86 85 75 80 81 81 73 68 61 58 70
38 26 19 16 14 9 6 6 7 8 8 7 5 3 1 4 8 14 18 22 27 31 33 39 50 58 58 64 79 90 88 84 100 108 94 95 86 82 80 79 65 56 68
48 37 22 15 16 16 14 9 7 8 8 6 3 1 2 7 11 15 19 22 25 27 27 31 38 45 45 53 57 61 71 68 74 81 95 101 100 94 96 89 89 89 61
49 36 21 21 22 19 12 7 8 8 6 3 2 3 8 12 17 21 25 26 28 29 29 29 29 30 38 48 52 52 52 65 76 82 73 76 81 80 81 85 88 85 85
51 35 21 24 24 25 20 17 13 13 10 7 6 5 5 8 12 17 24 30 30 28 27 26 25 25 27 30 38 44 52 55 56 60 62 62 61 64 67 65 62 62 64
56 41 33 33 27 25 26 17 18 20 18 11 6 5 4 4 6 10 16 20 23 26 27 28 28 28 29 30 29 28 31 39 44 45 50 55 57 58 61 65 59 57 62
60 51 49 40 34 31 24 18 15 13 10 14 7 5 4 2 3 5 9 13 19 24 27 32 35 38 33 27 24 24 25 26 29 29 29 31 38 43 47 51 56 58 54
71 68 65 55 47 39 32 28 19 15 15 13 12 7 6 4 3 4 8 14 18 21 26 33 38 38 38 36 29 24 24 23 22 23 21 21 22 27 30 36 44 49 51
83 80 75 65 55 45 40 36 26 24 24 22 21 16 9 10 12 13 17 18 20 17 19 25 28 29 26 28 27 22 19 20 17 11 13 14 10 13 22 38 41 45 51
95 87 75 66 60 54 50 44 35 30 27 24 24 25 19 17 15 19 25 23 19 19 16 16 16 18 21 25 20 17 18 21 23 27 28 23 13 5 13 7 33 49 61
75 83 76 65 65 62 57 51 40 31 25 20 20 23 22 19 19 25 26 24 22 20 23 19 14 14 18 20 16 9 8 11 15 19 21 27 29 29 26 5 25 32 43
67 78 69 65 63 61 57 49 39 34 24 24 23 26 23 21 20 22 18 18 23 23 25 27 26 13 11 8 5 11 15 16 13 9 1 7 12 6 9 6 13 6 10
37 69 60 66 69 62 56 51 42 36 29 28 27 22 20 17 22 21 20 24 22 21 20 28 31 28 17 11 12 8 6 9 4 10 5 4 13 20 19 18 16 34 41
29 34 60 68 67 64 61 51 43 40 32 29 27 22 22 21 19 21 22 26 18 14 16 19 17 18 27 22 16 16 16 9 7 13 5 14 19 23 14 16 15 1 1
22 21 3 35 48 60 56 44 39 37 26 27 29 27 21 18 18 14 16 16 12 14 16 22 22 20 30 26 21 16 12 17 15 14 13 14 20 20 12 9 5 3 5
33 50 47 36 35 56 48 40 33 27 27 30 34 28 24 25 21 17 9 18 21 16 7 6 4 28 29 24 26 22 14 9 13 14 18 10 8 5 4 3 9 10 5
26 22 44 61 47 71 53 38 28 23 23 31 31 29 28 31 26 29 28 19 15 10 8 5 3 3 1 5 24 24 9 27 9 9 16 8 12 4 10 10 13 18 23
40 20 13 35 71 73 54 41 29 21 23 32 31 29 34 31 30 30 36 33 31 23 18 16 11 8 12 15 25 26 15 9 18 24 22 19 20 16 13 17 22 26 28
41 38 24 32 54 67 56 48 40 32 24 32 37 38 35 31 29 35 38 36 29 27 24 23 19 19 22 22 24 27 27 25 21 24 26 24 25 27 25 27 26 30 34
46 41 43 36 43 55 64 55 49 47 37 38 46 45 41 35 30 33 40 38 32 29 25 23 26 22 21 23 28 27 24 19 21 30 34 33 31 27 23 21 21 22 17
Wind_Direction_500mb
127 150 162 174 172 164 168 183 195 203 214 209 214 210 217 221 228 233 242 245 248 246 248 239 238 242 243 241 237 232 232 218 214 203 200 202 203 207 217 225 231 233 241
134 153 193 204 212 197 189 194 191 187 210 217 226 225 222 223 226 233 238 245 248 245 239 233 234 236 243 244 236 233 235 228 211 211 196 200 207 216 225 233 234 236 241
136 143 185 210 217 217 220 224 220 222 224 222 228 231 236 240 240 247 250 251 254 249 249 243 236 249 243 254 245 239 226 229 215 218 211 194 211 213 218 223 229 234 240
141 124 123 178 209 220 214 223 217 232 235 232 235 236 239 249 251 248 252 255 258 265 263 252 252 296 288 292 270 239 234 234 234 231 233 237 236 210 215 227 233 236 239
154 127 104 97 114 150 212 233 237 236 244 244 252 253 257 256 256 257 257 262 270 272 274 268 265 287 272 253 301 257 238 234 240 250 244 242 245 243 234 222 226 227 234
151 139 131 121 121 131 148 184 224 238 247 257 267 262 265 271 271 269 272 269 272 268 275 263 256 262 263 254 285 263 242 242 244 244 258 256 250 248 240 244 237 230 230
161 157 146 145 158 148 136 164 167 169 158 195 202 226 248 261 274 276 280 278 273 275 264 266 265 258 258 250 243 252 257 256 259 257 260 265 262 259 256 253 249 239 236
162 171 172 175 178 179 187 167 153 152 145 144 138 126 96 288 294 299 300 301 300 294 286 278 276 270 266 263 257 264 260 266 252 250 254 262 258 255 252 254 254 251 245
173 184 181 198 194 188 193 204 204 199 177 173 166 192 296 299 303 308 312 312 310 309 304 294 284 280 282 277 273 264 259 253 248 244 257 260 257 258 256 256 253 244 232
177 179 187 208 213 221 217 223 208 199 187 186 211 269 310 313 308 305 307 307 305 307 309 308 301 291 278 272 271 271 269 260 259 257 257 258 258 257 260 260 255 250 250
186 183 192 211 218 223 231 238 237 236 215 215 250 300 310 299 305 309 309 309 311 313 314 313 312 309 304 292 287 281 274 269 267 265 264 260 259 256 257 251 260 256 248
189 190 199 194 201 209 211 213 238 228 230 209 228 263 254 266 303 307 300 303 309 311 315 317 313 311 307 302 295 282 281 280 276 272 273 272 273 268 267 263 260 254 251
189 192 198 197 208 208 213 221 235 244 245 190 207 273 261 252 313 306 292 296 303 309 315 319 319 318 319 318 311 310 304 293 289 285 282 283 279 275 274 268 264 255 251
193 199 199 198 206 212 211 214 224 243 266 258 263 267 294 284 330 312 311 308 300 302 312 322 326 324 325 329 326 324 327 324 324 322 315 301 292 285 294 282 268 257 247
198 202 199 198 201 208 209 215 216 221 237 228 227 248 262 294 312 315 324 314 315 316 304 308 307 320 332 339 328 323 319 311 298 271 239 222 217 228 248 259 264 253 239
202 201 200 199 201 210 215 214 215 222 236 245 219 230 244 280 295 304 309 308 301 295 280 290 305 331 334 340 331 310 297 282 280 278 277 272 283 312 49 61 223 218 207
195 197 195 205 209 213 215 215 218 222 236 253 253 229 237 264 288 298 293 275 291 288 286 273 290 326 327 342 347 356 346 349 319 293 281 275 269 287 301 321 122 139 157
204 200 203 212 215 218 215 214 213 224 233 250 255 238 245 250 266 285 299 305 302 273 270 271 270 269 284 339 42 13 343 352 331 321 72 283 93 157 223 196 206 184 127
220 203 214 232 217 215 215 210 216 223 235 247 252 247 221 240 283 264 289 301 301 277 273 286 273 246 246 259 288 302 350 329 236 4 32 82 116 101 146 112 114 122 115
26 239 228 219 212 212 214 209 220 222 235 242 244 220 219 241 261 265 286 299 271 253 267 273 275 251 251 266 254 272 294 312 274 249 40 67 91 97 93 106 106 232 112
315 7 170 208 212 219 208 216 222 233 247 247 237 224 222 241 230 244 278 286 240 225 257 263 259 244 229 232 233 249 273 308 139 93 17 20 53 32 23 1 74 118 111
281 261 256 256 243 237 220 218 235 249 256 242 237 225 222 214 215 200 142 149 142 146 161 25 348 239 221 261 227 232 254 170 136 101 113 113 22 88 35 359 209 299 257
292 263 251 240 233 227 223 230 247 243 251 232 233 225 211 211 219 219 219 220 219 228 241 258 350 37 54 203 229 248 240 145 155 126 157 266 281 259 204 226 242 246 254
286 321 283 234 220 216 226 240 237 248 241 230 223 222 213 212 222 231 227 236 239 240 236 229 220 173 154 140 152 140 162 218 279 292 300 288 280 286 274 251 246 244 256
304 277 282 276 250 237 236 233 235 241 242 236 224 220 216 214 220 234 233 235 238 237 246 252 246 235 235 250 253 254 258 266 282 295 285 271 267 273 270 266 264 259 255
280 289 271 290 259 247 238 233 238 241 240 236 225 222 219 216 220 232 237 236 238 237 243 253 260 269 283 265 263 271 262 257 267 270 271 271 269 265 250 257 270 268 262
Wind_Speed_850mb
19 18 22 22 20 33 38 41 49 57 50 50 40 43 51 47 47 44 39 47 58 70 63 68 65 57 49 62 53 45 57 52 55 52 42 40 45 46 44 46 45 46 43
20 14 17 18 20 25 32 40 34 35 43 54 57 48 48 52 57 61 57 51 47 48 60 76 83 74 59 54 65 54 53 55 65 61 57 46 46 53 50 54 53 50 43
15 9 11 19 24 23 23 24 40 43 46 43 45 52 52 57 57 61 60 65 64 55 56 70 71 44 53 62 72 66 61 69 65 68 56 32 31 58 61 59 57 52 51
16 9 6 10 11 17 15 18 21 36 40 47 50 44 46 52 59 67 70 71 73 72 61 62 59 22 66 39 56 82 69 69 70 73 70 63 51 37 35 58 60 58 56
17 14 14 18 15 9 14 23 25 29 28 32 40 46 47 45 52 56 58 59 60 61 67 78 60 53 81 78 95 50 73 69 64 64 72 80 77 72 48 47 62 63 63
24 20 17 14 13 10 8 8 12 18 17 14 16 19 24 26 29 40 47 50 50 52 64 63 61 86 92 85 64 41 66 80 67 70 71 80 79 76 69 63 57 68 74
33 28 21 11 6 3 3 5 5 6 5 4 3 4 9 13 18 21 28 34 34 39 54 58 55 52 61 68 67 74 65 72 86 85 75 80 81 81 73 68 61 58 70
38 26 19 16 14 9 6 6 7 8 8 7 5 3 1 4 8 14 18 22 27 31 33 39 50 58 58 64 79 90 88 84 100 108 94 95 86 82 80 79 65 56 68
48 37 22 15 16 16 14 9 7 8 8 6 3 1 2 7 11 15 19 22 25 27 27 31 38 45 45 53 57 61 71 68 74 81 95 101 100 94 96 89 89 89 61
49 36 21 21 22 19 12 7 8 8 6 3 2 3 8 12 17 21 25 26 28 29 29 29 29 30 38 48 52 52 52 65 76 82 73 76 81 80 81 85 88 85 85
51 35 21 24 24 25 20 17 13 13 10 7 6 5 5 8 12 17 24 30 30 28 27 26 25 25 27 30 38 44 52 55 56 60 62 62 61 64 67 65 62 62 64
56 41 33 33 27 25 26 17 18 20 18 11 6 5 4 4 6 10 16 20 23 26 27 28 28 28 29 30 29 28 31 39 44 45 50 55 57 58 61 65 59 57 62
60 51 49 40 34 31 24 18 15 13 10 14 7 5 4 2 3 5 9 13 19 24 27 32 35 38 33 27 24 24 25 26 29 29 29 31 38 43 47 51 56 58 54
71 68 65 55 47 39 32 28 19 15 15 13 12 7 6 4 3 4 8 14 18 21 26 33 38 38 38 36 29 24 24 23 22 23 21 21 22 27 30 36 44 49 51
83 80 75 65 55 45 40 36 26 24 24 22 21 16 9 10 12 13 17 18 20 17 19 25 28 29 26 28 27 22 19 20 17 11 13 14 10 13 22 38 41 45 51
95 87 75 66 60 54 50 44 35 30 27 24 24 25 19 17 15 19 25 23 19 19 16 16 16 18 21 25 20 17 18 21 23 27 28 23 13 5 13 7 33 49 61
75 83 76 65 65 62 57 51 40 31 25 20 20 23 22 19 19 25 26 24 22 20 23 19 14 14 18 20 16 9 8 11 15 19 21 27 29 29 26 5 25 32 43
67 78 69 65 63 61 57 49 39 34 24 24 23 26 23 21 20 22 18 18 23 23 25 27 26 13 11 8 5 11 15 16 13 9 1 7 12 6 9 6 13 6 10
37 69 60 66 69 62 56 51 42 36 29 28 27 22 20 17 22 21 20 24 22 21 20 28 31 28 17 11 12 8 6 9 4 10 5 4 13 20 19 18 16 34 41
29 34 60 68 67 64 61 51 43 40 32 29 27 22 22 21 19 21 22 26 18 14 16 19 17 18 27 22 16 16 16 9 7 13 5 14 19 23 14 16 15 1 1
22 21 3 35 48 60 56 44 39 37 26 27 29 27 21 18 18 14 16 16 12 14 16 22 22 20 30 26 21 16 12 17 15 14 13 14 20 20 12 9 5 3 5
33 50 47 36 35 56 48 40 33 27 27 30 34 28 24 25 21 17 9 18 21 16 7 6 4 28 29 24 26 22 14 9 13 14 18 10 8 5 4 3 9 10 5
26 22 44 61 47 71 53 38 28 23 23 31 31 29 28 31 26 29 28 19 15 10 8 5 3 3 1 5 24 24 9 27 9 9 16 8 12 4 10 10 13 18 23
40 20 13 35 71 73 54 41 29 21 23 32 31 29 34 31 30 30 36 33 31 23 18 16 11 8 12 15 25 26 15 9 18 24 22 19 20 16 13 17 22 26 28
41 38 24 32 54 67 56 48 40 32 24 32 37 38 35 31 29 35 38 36 29 27 24 23 19 19 22 22 24 27 27 25 21 24 26 24 25 27 25 27 26 30 34
46 41 43 36 43 55 64 55 49 47 37 38 46 45 41 35 30 33 40 38 32 29 25 23 26 22 21 23 28 27 24 19 21 30 34 33 31 27 23 21 21 22 17
Wind_Direction_850mb
127 150 162 174 172 164 168 183 195 203 214 209 214 210 217 221 228 233 242 245 248 246 248 239 238 242 243 241 237 232 232 218 214 203 200 202 203 207 217 225 231 233 241
134 153 193 204 212 197 189 194 191 187 210 217 226 225 222 223 226 233 238 245 248 245 239 233 234 236 243 244 236 233 235 228 211 211 196 200 207 216 225 233 234 236 241
136 143 185 210 217 217 220 224 220 222 224 222 228 231 236 240 240 247 250 251 254 249 249 243 236 249 243 254 245 239 226 229 215 218 211 194 211 213 218 223 229 234 240
141 124 123 178 209 220 214 223 217 232 235 232 235 236 239 249 251 248 252 255 258 265 263 252 252 296 288 292 270 239 234 234 234 231 233 237 236 210 215 227 233 236 239
154 127 104 97 114 150 212 233 237 236 244 244 252 253 257 256 256 257 257 262 270 272 274 268 265 287 272 253 301 257 238 234 240 250 244 242 245 243 234 222 226 227 234
151 139 131 121 121 131 148 184 224 238 247 257 267 262 265 271 271 269 272 269 272 268 275 263 256 262 263 254 285 263 242 242 244 244 258 256 250 248 240 244 237 230 230
161 157 146 145 158 148 136 164 167 169 158 195 202 226 248 261 274 276 280 278 273 275 264 266 265 258 258 250 243 252 257 256 259 257 260 265 262 259 256 253 249 239 236
162 171 172 175 178 179 187 167 153 152 145 144 138 126 96 288 294 299 300 301 300 294 286 278 276 270 266 263 257 264 260 266 252 250 254 262 258 255 252 254 254 251 245
173 184 181 198 194 188 193 204 204 199 177 173 166 192 296 299 303 308 312 312 310 309 304 294 284 280 282 277 273 264 259 253 248 244 257 260 257 258 256 256 253 244 232
177 179 187 208 213 221 217 223 208 199 187 186 211 269 310 313 308 305 307 307 305 307 309 308 301 291 278 272 271 271 269 260 259 257 257 258 258 257 260 260 255 250 250
186 183 192 211 218 223 231 238 237 236 215 215 250 300 310 299 305 309 309 309 311 313 314 313 312 309 304 292 287 281 274 269 267 265 264 260 259 256 257 251 260 256 248
189 190 199 194 201 209 211 213 238 228 230 209 228 263 254 266 303 307 300 303 309 311 315 317 313 311 307 302 295 282 281 280 276 272 273 272 273 268 267 263 260 254 251
189 192 198 197 208 208 213 221 235 244 245 190 207 273 261 252 313 306 292 296 303 309 315 319 319 318 319 318 311 310 304 293 289 285 282 283 279 275 274 268 264 255 251
193 199 199 198 206 212 211 214 224 243 266 258 263 267 294 284 330 312 311 308 300 302 312 322 326 324 325 329 326 324 327 324 324 322 315 301 292 285 294 282 268 257 247
198 202 199 198 201 208 209 215 216 221 237 228 227 248 262 294 312 315 324 314 315 316 304 308 307 320 332 339 328 323 319 311 298 271 239 222 217 228 248 259 264 253 239
202 201 200 199 201 210 215 214 215 222 236 245 219 230 244 280 295 304 309 308 301 295 280 290 305 331 334 340 331 310 297 282 280 278 277 272 283 312 49 61 223 218 207
195 197 195 205 209 213 215 215 218 222 236 253 253 229 237 264 288 298 293 275 291 288 286 273 290 326 327 342 347 356 346 349 319 293 281 275 269 287 301 321 122 139 157
204 200 203 212 215 218 215 214 213 224 233 250 255 238 245 250 266 285 299 305 302 273 270 271 270 269 284 339 42 13 343 352 331 321 72 283 93 157 223 196 206 184 127
220 203 214 232 217 215 215 210 216 223 235 247 252 247 221 240 283 264 289 301 301 277 273 286 273 246 246 259 288 302 350 329 236 4 32 82 116 101 146 112 114 122 115
26 239 228 219 212 212 214 209 220 222 235 242 244 220 219 241 261 265 286 299 271 253 267 273 275 251 251 266 254 272 294 312 274 249 40 67 91 97 93 106 106 232 112
315 7 170 208 212 219 208 216 222 233 247 247 237 224 222 241 230 244 278 286 240 225 257 263 259 244 229 232 233 249 273 308 139 93 17 20 53 32 23 1 74 118 111
281 261 256 256 243 237 220 218 235 249 256 242 237 225 222 214 215 200 142 149 142 146 161 25 348 239 221 261 227 232 254 170 136 101 113 113 22 88 35 359 209 299 257
292 263 251 240 233 227 223 230 247 243 251 232 233 225 211 211 219 219 219 220 219 228 241 258 350 37 54 203 229 248 240 145 155 126 157 266 281 259 204 226 242 246 254
286 321 283 234 220 216 226 240 237 248 241 230 223 222 213 212 222 231 227 236 239 240 236 229 220 173 154 140 152 140 162 218 279 292 300 288 280 286 274 251 246 244 256
304 277 282 276 250 237 236 233 235 241 242 236 224 220 216 214 220 234 233 235 238 237 246 252 246 235 235 250 253 254 258 266 282 295 285 271 267 273 270 266 264 259 255
280 289 271 290 259 247 238 233 238 241 240 236 225 222 219 216 220 232 237 236 238 237 243 253 260 269 283 265 263 271 262 257 267 270 271 271 269 265 250 257 270 268 262